Temp
-15 -15 -15 -15 -15 -14 -14 -14 -14 -14 -14 -14 -13 -13 -13 -13 -13 -13 -12 -12 -13 -12 -12 -12 -12 -12 -11 -12 -11 -11 -11 -10 -10 -10 -11 -11 -10 -10 -10 -10 -10 -10 -10 -11
-15 -16 -15 -15 -15 -15 -14 -14 -14 -14 -14 -14 -14 -13 -13 -13 -13 -13 -13 -12 -12 -13 -13 -12 -12 -12 -12 -12 -12 -11 -11 -11 -11 -10 -11 -10 -10 -10 -10 -10 -11 -11 -11 -11
-16 -16 -16 -16 -15 -15 -15 -15 -14 -14 -14 -13 -13 -13 -13 -13 -13 -13 -13 -12 -12 -12 -12 -12 -12 -12 -12 -12 -12 -12 -12 -12 -12 -11 -11 -11 -11 -11 -11 -11 -11 -11 -12 -11
-17 -16 -16 -16 -16 -16 -15 -15 -15 -14 -14 -14 -14 -12 -13 -13 -14 -14 -13 -12 -12 -12 -12 -12 -12 -12 -12 -12 -12 -13 -12 -13 -12 -12 -12 -12 -11 -11 -11 -11 -11 -11 -12 -12
-17 -17 -17 -17 -16 -16 -16 -15 -15 -15 -14 -14 -14 -13 -12 -13 -14 -14 -13 -13 -13 -12 -12 -12 -12 -12 -12 -12 -12 -12 -12 -12 -12 -12 -12 -12 -12 -12 -12 -12 -12 -12 -11 -11
-19 -18 -18 -18 -17 -17 -16 -16 -15 -15 -15 -14 -14 -14 -13 -14 -14 -14 -14 -13 -14 -13 -13 -12 -12 -12 -12 -12 -11 -11 -11 -12 -12 -12 -12 -12 -12 -12 -12 -12 -12 -12 -12 -12
-19 -19 -20 -19 -19 -18 -17 -17 -16 -16 -16 -15 -15 -14 -13 -14 -14 -14 -14 -14 -14 -13 -13 -13 -12 -12 -12 -12 -12 -12 -11 -11 -11 -11 -12 -12 -12 -11 -11 -11 -12 -12 -12 -12
-19 -19 -20 -20 -19 -18 -18 -18 -17 -16 -16 -16 -15 -14 -15 -15 -16 -17 -15 -14 -14 -13 -13 -13 -13 -12 -12 -12 -12 -12 -12 -11 -12 -11 -11 -11 -12 -11 -12 -12 -12 -11 -12 -12
-20 -20 -20 -20 -20 -20 -19 -19 -18 -18 -18 -17 -16 -16 -16 -17 -18 -17 -16 -16 -14 -13 -13 -13 -13 -13 -12 -12 -12 -12 -12 -12 -12 -11 -11 -11 -11 -10 -11 -12 -12 -11 -11 -11
-20 -20 -20 -20 -21 -20 -20 -19 -19 -19 -18 -18 -17 -17 -17 -17 -18 -18 -17 -17 -16 -16 -15 -14 -13 -12 -12 -12 -12 -12 -12 -12 -12 -11 -11 -11 -11 -11 -11 -11 -11 -11 -11 -11
-21 -21 -20 -21 -21 -20 -20 -20 -19 -19 -19 -18 -18 -17 -17 -18 -19 -18 -18 -18 -19 -19 -19 -18 -18 -16 -13 -13 -12 -12 -12 -11 -11 -11 -11 -11 -11 -11 -11 -11 -11 -10 -11 -11
-21 -21 -21 -21 -21 -20 -20 -20 -20 -19 -19 -18 -19 -17 -18 -19 -19 -18 -18 -19 -20 -21 -21 -21 -21 -20 -19 -18 -15 -12 -12 -11 -11 -11 -11 -11 -11 -11 -11 -11 -11 -11 -11 -11
-21 -21 -21 -21 -21 -20 -20 -20 -20 -19 -19 -19 -19 -18 -19 -19 -19 -18 -19 -20 -20 -21 -20 -20 -20 -20 -20 -19 -19 -16 -14 -11 -11 -11 -11 -11 -11 -11 -11 -11 -12 -12 -11 -11
-21 -21 -21 -21 -21 -21 -20 -20 -20 -20 -19 -19 -19 -18 -20 -19 -20 -20 -21 -20 -20 -20 -20 -20 -20 -20 -20 -20 -19 -19 -16 -12 -11 -11 -11 -11 -11 -11 -11 -12 -12 -12 -11 -11
-21 -21 -22 -21 -21 -21 -20 -21 -21 -20 -20 -19 -19 -19 -20 -20 -20 -20 -20 -20 -21 -20 -20 -20 -20 -20 -19 -19 -19 -19 -18 -15 -12 -11 -11 -11 -11 -11 -11 -12 -12 -11 -11 -11
-22 -21 -22 -21 -21 -21 -20 -21 -21 -21 -21 -20 -20 -19 -20 -20 -20 -21 -21 -20 -20 -20 -20 -20 -20 -19 -19 -20 -19 -19 -18 -16 -13 -12 -11 -11 -11 -11 -11 -12 -12 -11 -11 -11
-22 -22 -22 -21 -22 -21 -21 -21 -21 -21 -21 -21 -20 -20 -20 -20 -21 -21 -21 -20 -20 -19 -20 -20 -20 -20 -20 -19 -19 -19 -19 -18 -15 -12 -11 -11 -11 -11 -11 -12 -11 -11 -11 -11
-22 -22 -22 -21 -21 -21 -21 -21 -21 -21 -21 -21 -20 -20 -20 -20 -21 -21 -21 -20 -20 -20 -20 -20 -20 -20 -19 -19 -19 -19 -19 -18 -16 -13 -12 -11 -12 -11 -11 -11 -11 -11 -11 -11
-22 -22 -22 -22 -21 -21 -21 -21 -21 -20 -20 -21 -20 -20 -20 -21 -21 -21 -21 -21 -19 -19 -19 -19 -19 -19 -19 -18 -18 -18 -18 -18 -17 -13 -12 -12 -12 -11 -11 -11 -11 -11 -11 -11
-22 -22 -22 -22 -22 -21 -21 -21 -21 -20 -20 -20 -20 -20 -21 -20 -19 -20 -20 -19 -18 -17 -18 -18 -17 -18 -18 -18 -17 -17 -16 -16 -16 -13 -12 -12 -12 -11 -11 -11 -12 -11 -11 -11
-22 -22 -22 -22 -22 -22 -22 -21 -21 -20 -20 -20 -20 -20 -20 -19 -19 -18 -18 -18 -18 -18 -18 -17 -17 -17 -17 -17 -16 -16 -16 -16 -15 -13 -13 -13 -12 -11 -11 -12 -12 -12 -12 -12
-22 -22 -22 -22 -22 -22 -22 -21 -21 -21 -20 -20 -21 -20 -19 -18 -19 -18 -18 -18 -17 -17 -17 -17 -17 -16 -17 -16 -16 -16 -16 -15 -14 -13 -13 -13 -13 -12 -12 -12 -12 -12 -12 -12
-22 -22 -22 -22 -22 -22 -22 -21 -21 -21 -21 -20 -20 -20 -19 -18 -18 -17 -17 -18 -18 -17 -16 -16 -16 -16 -16 -15 -16 -16 -16 -15 -14 -13 -13 -13 -13 -12 -13 -13 -13 -12 -13 -13
-22 -22 -22 -22 -22 -21 -22 -21 -21 -21 -21 -20 -19 -19 -19 -18 -17 -17 -18 -18 -17 -17 -16 -16 -16 -16 -15 -15 -15 -15 -14 -13 -14 -13 -13 -13 -13 -13 -13 -13 -13 -13 -12 -13
-22 -22 -22 -22 -22 -22 -22 -22 -21 -21 -20 -20 -20 -19 -18 -17 -16 -18 -18 -17 -17 -16 -15 -14 -14 -14 -13 -13 -13 -14 -13 -13 -13 -13 -13 -13 -13 -13 -13 -13 -12 -12 -12 -12
-22 -22 -22 -22 -22 -22 -22 -21 -20 -20 -20 -20 -19 -19 -17 -16 -16 -17 -17 -17 -15 -15 -14 -13 -12 -12 -11 -12 -12 -13 -12 -12 -12 -12 -13 -13 -13 -13 -12 -13 -12 -12 -12 -11
Height
5698 5699 5699 5700 5702 5704 5705 5707 5709 5711 5714 5719 5723 5725 5731 5733 5735 5737 5741 5744 5746 5754 5760 5767 5774 5778 5783 5787 5793 5797 5798 5799 5805 5810 5814 5817 5825 5827 5832 5834 5838 5837 5833 5836
5693 5692 5692 5693 5695 5697 5699 5700 5702 5704 5706 5709 5714 5717 5720 5724 5725 5727 5730 5735 5738 5740 5744 5753 5761 5766 5772 5776 5781 5786 5792 5795 5798 5801 5804 5807 5813 5818 5824 5824 5828 5833 5834 5835
5686 5686 5686 5687 5688 5689 5691 5691 5693 5696 5698 5700 5703 5706 5711 5713 5714 5716 5720 5724 5729 5732 5734 5738 5744 5751 5756 5763 5768 5773 5778 5783 5789 5793 5795 5798 5804 5808 5813 5817 5822 5826 5825 5826
5679 5679 5680 5681 5681 5682 5683 5684 5685 5688 5690 5693 5694 5696 5703 5704 5704 5704 5707 5713 5717 5721 5724 5728 5731 5736 5742 5748 5753 5759 5765 5771 5775 5779 5784 5788 5792 5797 5803 5809 5813 5815 5818 5818
5672 5672 5673 5673 5674 5674 5675 5675 5677 5679 5681 5684 5687 5688 5692 5694 5691 5694 5695 5698 5704 5708 5711 5713 5716 5720 5724 5729 5735 5742 5750 5756 5760 5765 5770 5775 5780 5786 5792 5797 5802 5805 5808 5811
5664 5664 5666 5666 5666 5667 5667 5668 5670 5671 5673 5675 5677 5679 5684 5684 5682 5682 5683 5684 5686 5688 5692 5697 5701 5705 5710 5715 5721 5726 5733 5742 5747 5751 5757 5762 5767 5774 5778 5784 5790 5794 5797 5800
5657 5656 5657 5658 5658 5658 5659 5660 5661 5663 5665 5667 5668 5671 5676 5669 5668 5666 5668 5669 5667 5668 5675 5682 5687 5692 5696 5700 5706 5711 5717 5726 5731 5736 5743 5749 5755 5760 5764 5773 5778 5781 5786 5790
5648 5650 5648 5650 5650 5650 5651 5653 5654 5653 5656 5657 5658 5662 5662 5660 5652 5647 5647 5650 5652 5656 5664 5667 5670 5675 5681 5687 5692 5697 5702 5710 5715 5721 5729 5736 5742 5747 5753 5758 5764 5769 5773 5779
5640 5640 5641 5642 5641 5643 5644 5645 5646 5645 5645 5645 5649 5652 5653 5647 5640 5636 5634 5633 5633 5642 5645 5649 5654 5660 5667 5672 5677 5682 5688 5695 5699 5705 5713 5722 5730 5736 5743 5748 5753 5756 5764 5767
5631 5631 5632 5633 5633 5635 5635 5638 5639 5638 5637 5637 5639 5639 5638 5635 5628 5626 5622 5620 5622 5622 5623 5626 5629 5638 5648 5651 5657 5663 5670 5678 5684 5691 5700 5708 5716 5724 5729 5735 5741 5748 5754 5755
5622 5623 5625 5624 5626 5626 5626 5629 5631 5631 5631 5629 5628 5632 5628 5624 5617 5617 5614 5608 5606 5607 5606 5606 5608 5612 5618 5624 5633 5642 5651 5660 5669 5678 5686 5694 5702 5710 5718 5724 5729 5736 5742 5743
5615 5614 5616 5618 5617 5620 5621 5622 5623 5623 5624 5622 5619 5624 5617 5613 5608 5606 5602 5598 5595 5595 5596 5596 5597 5598 5598 5601 5608 5618 5627 5641 5651 5659 5669 5680 5689 5698 5706 5712 5719 5724 5730 5733
5608 5608 5609 5612 5614 5614 5615 5616 5616 5615 5615 5614 5611 5613 5606 5601 5599 5595 5591 5589 5586 5584 5584 5584 5584 5585 5585 5587 5588 5595 5605 5621 5633 5643 5654 5666 5676 5685 5694 5701 5707 5712 5717 5721
5601 5602 5603 5607 5607 5608 5610 5610 5609 5608 5607 5606 5602 5601 5600 5595 5590 5586 5582 5576 5574 5573 5573 5573 5572 5572 5573 5574 5575 5578 5586 5598 5612 5626 5639 5651 5664 5674 5682 5689 5695 5701 5707 5714
5595 5597 5597 5600 5601 5601 5604 5605 5603 5600 5600 5596 5597 5591 5591 5583 5580 5576 5570 5565 5562 5559 5559 5559 5559 5559 5561 5562 5562 5566 5571 5579 5590 5608 5623 5639 5650 5660 5668 5678 5685 5692 5700 5707
5590 5592 5593 5596 5595 5596 5597 5597 5596 5594 5592 5589 5586 5584 5580 5573 5567 5560 5551 5545 5543 5543 5544 5545 5545 5546 5547 5548 5549 5550 5554 5561 5574 5591 5611 5624 5638 5649 5658 5668 5677 5683 5691 5698
5586 5587 5589 5592 5590 5590 5592 5591 5589 5586 5584 5581 5578 5575 5569 5563 5555 5546 5536 5529 5525 5527 5528 5531 5531 5532 5533 5534 5532 5537 5541 5548 5560 5577 5596 5612 5627 5638 5650 5661 5667 5675 5683 5689
5582 5582 5584 5586 5585 5586 5586 5585 5582 5578 5577 5575 5568 5564 5557 5550 5541 5532 5520 5511 5510 5513 5517 5518 5519 5521 5521 5520 5520 5525 5531 5538 5549 5566 5584 5601 5617 5631 5642 5651 5658 5668 5676 5682
5578 5579 5580 5580 5579 5580 5582 5578 5575 5570 5569 5565 5560 5555 5547 5537 5528 5526 5509 5502 5500 5502 5505 5508 5511 5512 5510 5511 5513 5518 5523 5531 5542 5557 5576 5594 5610 5623 5634 5642 5652 5661 5669 5675
5578 5578 5578 5575 5572 5572 5573 5569 5565 5561 5557 5553 5549 5543 5534 5526 5516 5516 5505 5500 5497 5499 5501 5503 5505 5505 5505 5506 5508 5512 5517 5527 5538 5553 5573 5589 5604 5616 5627 5636 5646 5654 5662 5668
5576 5574 5573 5571 5567 5567 5563 5560 5557 5554 5550 5544 5538 5531 5522 5518 5513 5506 5503 5500 5498 5499 5498 5499 5500 5501 5500 5503 5504 5509 5515 5524 5535 5552 5569 5583 5596 5609 5620 5630 5640 5649 5656 5662
5572 5571 5569 5567 5563 5560 5557 5554 5550 5545 5542 5536 5529 5523 5516 5513 5508 5503 5501 5500 5499 5497 5498 5497 5498 5496 5498 5500 5502 5508 5515 5521 5537 5553 5567 5581 5593 5605 5616 5625 5635 5643 5649 5656
5569 5568 5565 5562 5559 5554 5551 5547 5543 5537 5532 5525 5519 5515 5510 5509 5505 5502 5501 5500 5498 5496 5494 5493 5494 5494 5493 5497 5502 5507 5514 5524 5539 5553 5567 5578 5590 5603 5614 5623 5631 5637 5644 5651
5567 5565 5562 5560 5556 5552 5547 5542 5536 5530 5523 5517 5514 5510 5507 5505 5503 5502 5500 5497 5494 5491 5490 5488 5488 5489 5491 5496 5503 5509 5518 5530 5542 5555 5567 5580 5590 5601 5612 5619 5626 5633 5641 5648
5567 5564 5560 5557 5551 5548 5542 5534 5526 5520 5515 5511 5509 5506 5504 5504 5502 5501 5498 5494 5492 5491 5491 5486 5485 5486 5489 5495 5505 5515 5526 5535 5546 5557 5569 5580 5590 5601 5609 5616 5624 5631 5638 5644
5565 5561 5557 5551 5546 5538 5531 5525 5518 5515 5511 5508 5505 5504 5503 5504 5504 5501 5498 5495 5492 5490 5487 5484 5485 5487 5488 5496 5506 5519 5530 5541 5551 5563 5573 5584 5593 5600 5608 5616 5624 5631 5637 5642
Wind_Speed
26 29 33 36 37 39 41 40 39 38 40 39 38 38 36 37 39 40 43 41 45 75 64 65 61 60 61 59 58 57 58 56 57 56 58 58 50 35 44 49 37 43 45 43
23 25 28 30 33 35 37 39 40 41 42 43 41 40 41 40 41 42 43 45 46 48 51 75 72 66 65 62 58 61 62 60 59 62 60 57 45 44 46 44 42 44 45 47
24 24 27 28 28 30 32 34 36 38 39 40 41 41 39 40 43 45 47 47 48 50 51 52 63 72 73 69 65 62 62 61 61 59 61 59 56 60 59 57 54 49 48 45
24 25 25 26 27 29 30 32 34 35 36 37 39 40 36 38 41 44 45 47 49 52 55 57 58 58 68 76 78 70 69 63 61 62 61 61 66 66 61 55 56 54 51 42
26 26 24 26 28 29 30 31 32 32 33 33 32 38 37 35 38 40 43 45 48 50 54 59 62 64 65 65 65 70 79 74 72 70 69 70 68 68 69 67 63 57 55 46
26 26 24 25 27 29 30 31 31 31 32 33 32 35 35 34 39 40 42 45 46 48 54 58 61 64 68 69 69 68 67 68 72 83 78 77 80 79 76 67 63 58 51 45
24 26 23 24 27 28 29 30 31 31 30 32 34 36 34 38 41 46 50 50 53 54 52 53 57 62 65 67 69 71 71 69 67 65 69 77 74 70 69 63 54 53 52 46
27 26 26 26 26 27 27 28 28 31 30 30 32 37 33 36 35 37 50 56 57 60 58 57 58 59 61 64 68 68 70 70 69 68 65 61 60 62 60 60 55 54 45 45
29 27 24 23 27 27 27 26 26 27 26 28 29 30 28 27 33 46 50 55 62 65 66 66 65 64 62 61 64 68 70 70 70 69 67 63 60 57 58 55 53 54 45 46
28 27 26 24 25 24 27 25 22 22 26 25 23 22 19 26 36 43 50 56 60 64 67 70 73 73 70 70 68 66 68 70 71 70 67 64 62 56 54 54 54 50 44 45
23 25 24 23 22 26 30 24 22 24 24 26 27 21 26 31 31 39 46 50 49 52 57 58 59 66 73 76 75 73 70 69 69 69 68 65 61 59 57 57 54 49 44 45
20 20 17 17 23 25 26 25 23 23 24 28 30 23 31 36 35 36 43 47 51 46 40 39 39 39 48 56 68 76 76 71 69 69 68 66 63 60 58 58 56 51 47 48
21 22 19 18 22 24 24 24 23 24 25 22 28 27 35 36 36 39 38 41 43 40 35 34 32 35 38 39 42 60 74 75 71 68 67 66 63 60 57 56 56 53 51 48
22 20 16 18 21 23 20 20 21 25 27 25 28 26 29 32 33 34 34 40 35 42 39 36 34 37 40 41 37 36 57 76 74 70 67 66 62 60 58 57 56 55 51 47
21 14 16 16 19 21 20 16 23 28 27 30 27 34 34 41 42 39 44 44 41 41 43 42 39 39 40 42 45 41 43 65 77 72 68 64 62 62 60 56 57 55 49 45
18 14 15 12 19 20 16 17 24 27 26 31 32 34 39 44 39 47 50 48 44 45 46 48 47 47 43 44 44 42 46 55 71 73 66 64 61 60 59 56 54 55 48 42
16 15 16 12 18 20 17 19 23 27 30 32 35 36 41 38 46 55 52 45 44 42 42 42 43 41 42 42 43 38 48 50 58 70 67 63 59 59 56 53 56 50 44 39
16 17 16 16 19 21 20 21 26 31 31 32 39 40 49 52 50 54 49 42 37 37 40 40 35 36 34 36 44 34 37 41 52 64 65 62 58 56 53 55 54 46 41 37
8 14 17 20 22 24 19 25 28 31 32 30 35 41 41 45 47 38 39 38 26 25 20 23 27 25 27 13 24 30 37 35 45 60 62 58 53 52 52 54 52 45 37 37
9 13 16 23 29 28 27 30 32 33 33 34 38 43 46 44 33 21 29 24 7 6 14 17 13 18 24 20 19 14 30 26 36 58 54 53 51 50 51 52 49 43 39 36
14 19 21 25 29 26 25 28 31 31 34 38 43 50 43 29 28 22 22 12 2 1 6 11 17 17 21 21 14 20 16 28 36 50 52 52 51 51 52 50 45 40 34 32
16 17 18 21 21 23 24 24 28 32 35 45 48 48 30 21 24 19 11 5 1 1 8 17 21 23 26 9 10 17 17 34 46 48 47 49 47 48 48 45 40 35 36 33
16 15 16 19 20 22 24 30 33 39 44 50 41 26 20 21 19 9 3 7 4 3 3 7 8 7 8 7 19 18 28 43 47 49 46 47 47 45 42 38 37 38 39 30
8 14 15 18 24 26 29 32 39 45 44 39 27 20 20 13 9 4 8 6 6 5 2 9 20 20 14 10 18 24 39 52 46 45 47 46 44 41 39 40 39 33 27 25
15 18 18 24 30 29 33 38 40 34 26 22 18 16 10 5 4 9 6 7 10 10 14 14 8 12 17 18 24 31 34 44 45 45 46 44 42 41 40 39 34 28 26 25
18 21 24 23 30 42 37 33 24 21 16 15 13 8 5 7 9 6 5 8 10 10 14 17 22 20 25 24 32 37 29 38 41 42 42 40 39 38 33 31 28 27 24 21
Wind_Direction
253 254 251 249 248 248 250 251 252 250 251 249 246 244 240 242 241 240 237 241 248 221 225 222 222 226 230 234 237 239 247 253 252 252 259 254 265 245 253 260 265 270 276 298
253 253 253 253 252 250 251 253 254 254 254 255 252 250 249 245 244 243 241 238 239 244 244 226 226 226 229 230 232 237 241 245 250 254 260 260 259 240 247 253 259 261 270 275
258 254 254 254 254 254 252 252 251 252 251 254 254 251 251 253 252 248 245 243 239 239 241 244 235 227 228 230 235 234 237 240 244 248 252 256 255 256 258 254 262 265 270 274
261 259 258 258 256 254 254 253 253 254 253 253 255 253 248 250 250 251 248 243 242 240 239 239 240 239 237 233 231 235 233 234 240 242 242 245 252 256 258 261 265 258 268 271
261 259 257 256 255 255 255 255 255 256 256 253 253 253 249 248 252 252 252 251 246 241 240 240 239 239 241 240 240 239 233 233 235 239 244 248 250 254 256 261 258 264 267 265
259 256 257 252 253 253 254 254 254 253 255 257 256 256 253 258 257 255 254 252 249 248 243 239 238 239 240 241 243 243 243 240 241 241 240 245 250 254 259 259 261 265 260 259
264 251 248 250 251 251 251 253 255 258 258 261 262 261 264 270 270 264 257 256 254 250 247 248 244 240 240 241 241 244 245 245 244 243 243 246 249 253 255 253 257 260 258 262
271 253 240 236 251 253 249 250 254 260 263 265 267 268 270 277 280 279 272 265 262 258 254 252 250 248 244 242 242 242 243 245 247 247 246 243 243 248 248 256 254 260 262 265
268 263 254 246 248 252 249 253 259 267 269 272 274 276 281 275 280 273 272 273 271 266 264 260 255 251 250 248 243 241 242 243 245 246 248 247 246 248 247 249 253 256 257 258
272 271 266 265 252 245 248 249 256 262 273 280 282 285 278 286 284 278 281 278 274 272 269 265 262 257 252 249 247 244 239 239 241 243 245 247 248 247 250 253 253 255 253 256
276 266 262 258 252 241 246 255 255 265 270 283 291 282 291 295 294 292 294 294 282 272 266 265 262 258 254 250 245 244 242 237 236 239 242 244 245 247 247 250 253 255 253 256
279 275 271 258 233 237 247 253 259 267 277 286 292 288 298 301 293 290 286 290 284 269 264 264 265 260 256 251 244 240 239 237 234 234 236 239 240 242 244 248 251 253 253 256
277 275 269 223 229 242 245 252 265 273 278 289 289 307 301 297 289 283 287 283 284 264 252 249 252 250 247 252 247 238 234 234 233 230 232 233 235 238 240 244 249 252 254 256
281 279 252 219 239 245 247 254 260 269 274 280 290 301 317 304 286 281 287 284 279 251 255 252 253 250 244 244 246 239 232 228 228 227 227 229 230 233 235 238 243 248 251 253
281 270 242 235 246 253 250 257 270 274 284 283 294 298 309 299 297 298 296 281 272 260 246 247 253 257 255 251 247 242 233 227 223 222 222 224 225 227 230 233 238 244 247 249
282 264 238 235 253 257 266 262 264 273 279 289 295 301 303 300 306 314 300 286 265 260 254 253 261 266 263 251 246 244 225 221 221 218 216 219 221 223 226 229 234 240 244 247
275 266 242 235 253 264 269 275 277 279 283 289 294 296 301 295 297 305 311 287 268 255 253 257 264 259 260 254 253 237 226 219 214 215 212 214 215 218 221 223 231 237 240 242
266 251 251 252 261 264 275 283 277 282 288 289 291 292 298 303 306 316 310 293 280 254 249 258 253 255 257 259 248 226 216 214 209 209 209 208 211 214 215 220 229 232 234 236
245 251 266 273 274 270 276 276 288 290 291 288 290 298 302 311 315 316 297 289 281 256 228 233 240 259 256 245 227 206 214 209 206 202 205 204 205 209 212 219 225 228 230 231
268 271 269 282 287 291 295 292 287 289 289 288 299 311 313 312 309 318 292 297 253 238 231 259 244 231 229 249 244 229 215 195 201 198 196 198 200 205 210 218 222 223 224 228
290 283 284 288 294 299 293 289 288 286 284 302 305 313 314 308 307 301 288 282 228 300 276 238 228 230 233 232 182 162 179 181 191 186 189 193 195 200 208 214 216 217 218 222
300 304 305 304 304 301 302 301 298 292 297 302 307 313 302 300 306 293 256 220 216 221 213 221 229 243 245 192 166 181 194 171 176 180 185 190 193 199 205 209 211 210 212 215
321 326 317 313 309 311 313 307 301 298 302 307 310 305 291 302 298 269 208 94 64 41 133 173 188 198 229 150 179 170 174 169 173 177 182 186 189 196 202 202 202 204 212 205
344 332 327 324 310 309 302 295 298 302 306 303 303 297 299 293 260 141 113 83 78 59 344 229 221 214 194 186 188 165 164 169 177 175 181 187 184 186 192 194 199 199 191 205
360 358 327 317 317 317 314 308 304 309 309 299 295 298 276 213 145 105 85 20 21 358 279 312 329 217 141 172 169 166 169 174 177 177 180 182 181 186 197 193 190 190 200 203
350 348 341 339 316 324 324 323 331 330 322 317 299 276 155 136 105 100 47 0 12 13 356 30 87 134 144 153 159 160 165 176 174 178 179 177 184 189 176 180 186 195 193 193